Flag for Switzerland Weather past 2 weeks in Aarau, Aargau, Switzerland

Now
50 °F

Cool.


Feels Like: 46 °F
Forecast: 48 / 51 °F
Wind: 12 mph from West

Location: Wynau

Current Time: Mar 29, 2015 at 11:37:53 AM

Latest Report: Mar 29, 2015 at 10:00 AM


Visibility: N/A

Pressure: 30.01 "Hg

Humidity: 73%

Dew point: 42 °F

Location of AarauLocation

Historic Weather in Aarau — Graph

°F

Aarau temperature yesterday

Maximum temperature yesterday: 54 °F (at 1:00 PM)
Minimum temperature yesterday: 29 °F (at 7:00 AM)
Average temperature yesterday: 42 °F

Past Weeks' High & Low Weather Summary

 TemperatureHumidityPressure
High64 °F (Mar 18, 4:00 PM)100% (Mar 24, 3:00 AM)30.34 "Hg (Mar 24, 3:00 AM)
Low29 °F (Mar 28, 7:00 AM)30% (Mar 24, 4:00 PM)29.61 "Hg (Mar 25, 1:00 PM)
Average44 °F77%30.07 "Hg
* Reported Mar 14 9:00 AM — Mar 29 10:00 AM, Aarau, Weather by CustomWeather, © 2015

Note: Actual official high and low records may vary slightly from our data, if they occured in-between our weather recording intervals... More about our weather records

Advertising

Aarau weather history for previous 24 hours

 ConditionsComfort  
Time TempWeatherWind HumidityBarometerVisibility
10:00 AM
Sun, Mar 29
50 °FCool.12 mph73%30.01 "HgN/A
9:00 AM49 °FCool.10 mph78%30.02 "HgN/A
8:00 AM48 °FCool.9 mph80%30.03 "HgN/A
7:00 AM47 °FCool.5 mph85%30.04 "HgN/A
6:00 AM46 °FCool.6 mph87%30.07 "HgN/A
5:00 AM45 °FQuite cool.6 mph91%30.08 "HgN/A
4:00 AM46 °FCool.7 mph90%30.12 "HgN/A
3:00 AM46 °FCool.8 mph89%30.11 "HgN/A
1:00 AM46 °FCool.7 mph87%30.12 "HgN/A
12:00 AM46 °FCool.5 mph88%30.14 "HgN/A
11:00 PM
Sat, Mar 28
46 °FCool.7 mph88%30.15 "HgN/A
9:00 PM45 °FCool.9 mph91%30.17 "HgN/A
8:00 PM45 °FCool.8 mph88%30.17 "HgN/A
7:00 PM48 °FCool.12 mph68%30.14 "HgN/A
6:00 PM47 °FCool.6 mph77%30.14 "HgN/A
5:00 PM49 °FCool.5 mph61%30.14 "HgN/A
4:00 PM52 °FCool.10 mph48%30.12 "HgN/A
3:00 PM54 °FCool.8 mph46%30.10 "HgN/A
2:00 PM54 °FCool.7 mph45%30.12 "HgN/A
1:00 PM54 °FCool.6 mph46%30.15 "HgN/A
12:00 PM51 °FCool.6 mph51%30.18 "HgN/A
11:00 AM48 °FCool.5 mph60%30.22 "HgN/A
Weather by CustomWeather, © 2015

See weather overviewHow to use our weather pages